Weather observations for the past three days for
Big Sandy Regional Airport
| Date | Time (edt) | Wind (kph) | Vis. (km) | Weather | Sky Cond. | Temperature (ºC) | Relative Humidity | Wind Chill (°C) | Heat Index (°C) | Pressure | Precipitation (cm) | ||||||
|---|---|---|---|---|---|---|---|---|---|---|---|---|---|---|---|---|---|
| Air | Dwpt | 6 hour | altimeter (cm) | sea level (mb) | 1 hr | 3 hr | 6 hr | ||||||||||
| Max. | Min. | ||||||||||||||||
| 10 | 12:15 | W 13 | 16.09 | Partly Cloudy | SCT080 | 25 | 10.7 | 41% | 26 | 76.2 | 0.0 | ||||||
| 10 | 11:55 | SW 9 | 16.09 | Fair | CLR | 24 | 11.6 | 46% | 25 | 76.23 | 0.0 | ||||||
| 10 | 11:30 | SW 13 | 16.09 | Fair | CLR | 22.8 | 11.5 | 49% | 76.23 | 0.0 | |||||||
| 10 | 11:15 | SW 13 | 16.09 | Fair | CLR | 0 | 0 | 0% | 76.23 | 0.0 | |||||||
| 10 | 09:15 | SW 9 | 16.09 | Partly Cloudy | SCT060 | 17.3 | 10.4 | 64% | 76.2 | 0.0 | |||||||
| 10 | 08:55 | SW 9 | 16.09 | Partly Cloudy | SCT060 | 16.8 | 10 | 64% | 76.23 | 0.0 | |||||||
| 10 | 08:35 | Calm | 16.09 | Fair | CLR | 15.9 | 9.9 | 68% | 76.23 | 0.0 | |||||||
| 10 | 08:15 | Calm | 16.09 | Fair | CLR | 15.3 | 9.9 | 70% | 76.2 | 0.0 | |||||||
| 10 | 07:55 | SW 6 | 16.09 | Partly Cloudy | SCT060 | 14.6 | 9.7 | 14.6 | 12.1 | 73% | 76.2 | 0.0 | |||||
| 10 | 07:35 | SW 6 | 16.09 | Overcast | OVC060 | 13.2 | 9.5 | 78% | 76.17 | 0.0 | |||||||
| 10 | 07:15 | SW 6 | 16.09 | Mostly Cloudy | BKN060 | 13.3 | 9.5 | 78% | 76.15 | 0.0 | |||||||
| 10 | 06:55 | SW 7 | 16.09 | Fair | CLR | 12.5 | 9.2 | 80% | 76.12 | 0.0 | |||||||
| 10 | 06:35 | SW 9 | 16.09 | Fair | CLR | 12.5 | 9.2 | 80% | 76.1 | 0.0 | |||||||
| 10 | 06:15 | SW 7 | 16.09 | Fair | CLR | 12.1 | 9.2 | 83% | 76.07 | 0.0 | |||||||
| 10 | 05:55 | SW 6 | 16.09 | Fair | CLR | 12.3 | 9.3 | 82% | 76.07 | 0.0 | |||||||
| 10 | 05:35 | SW 7 | 16.09 | Fair | CLR | 12.3 | 9.5 | 83% | 76.07 | 0.0 | |||||||
| 10 | 05:15 | SW 9 | 16.09 | Fair | CLR | 12.3 | 9.5 | 83% | 76.05 | 0.0 | |||||||
| 10 | 04:55 | SW 9 | 16.09 | Fair | CLR | 12.5 | 9.5 | 82% | 76.02 | 0.0 | |||||||
| 10 | 04:35 | SW 9 | 16.09 | Fair | CLR | 12.6 | 9.6 | 82% | 76.02 | 0.0 | |||||||
| 10 | 04:15 | SW 9 | 16.09 | Fair | CLR | 12.8 | 9.6 | 81% | 76 | 0.0 | |||||||
| 10 | 03:55 | SW 9 | 16.09 | Fair | CLR | 12.7 | 9.7 | 82% | 76 | 0.0 | |||||||
| 10 | 03:35 | SW 7 | 16.09 | Fair | CLR | 12.8 | 10 | 83% | 76 | 0.0 | |||||||
| 10 | 03:15 | SW 7 | 16.09 | Fair | CLR | 13 | 10 | 82% | 76 | 0.0 | |||||||
| 10 | 02:55 | SW 7 | 16.09 | Fair | CLR | 13.1 | 10.1 | 82% | 76 | 0.0 | |||||||
| 10 | 02:35 | SW 7 | 16.09 | Fair | CLR | 13.5 | 10.1 | 80% | 76 | 0.0 | |||||||
| 10 | 02:15 | SW 6 | 16.09 | Fair | CLR | 13.7 | 10.1 | 79% | 76 | 0.0 | |||||||
| 10 | 01:55 | SW 7 | 16.09 | Fair | CLR | 13.8 | 10.1 | 19.1 | 13 | 79% | 76 | 0.0 | |||||
| 10 | 01:35 | S 7 | 16.09 | Fair | CLR | 13.8 | 10.2 | 79% | 76 | 0.0 | |||||||
| 10 | 01:15 | SW 6 | 16.09 | Fair | CLR | 14 | 10.1 | 78% | 76.02 | 0.0 | |||||||
| 10 | 00:55 | S 6 | 16.09 | Fair | CLR | 14.4 | 10.1 | 76% | 76 | 0.0 | |||||||
| 10 | 00:35 | SW 6 | 16.09 | Fair | CLR | 14.3 | 10.2 | 77% | 76 | 0.0 | |||||||
| 10 | 00:15 | Calm | 16.09 | Fair | CLR | 14 | 10 | 77% | 76 | 0.0 | |||||||
| 09 | 23:55 | Calm | 16.09 | Fair | CLR | 15.5 | 10 | 70% | 76 | 0.0 | |||||||
| 09 | 23:35 | Calm | 16.09 | Fair | CLR | 15.7 | 10.1 | 70% | 76 | 0.0 | |||||||
| 09 | 23:15 | Calm | 16.09 | Fair | CLR | 15.8 | 10.3 | 70% | 76 | 0.0 | |||||||
| 09 | 22:55 | Calm | 16.09 | Fair | CLR | 15.2 | 10.3 | 73% | 76 | 0.0 | |||||||
| 09 | 22:35 | W 6 | 16.09 | Fair | CLR | 15.6 | 10.2 | 70% | 76 | 0.0 | |||||||
| 09 | 22:15 | SW 7 | 16.09 | Fair | CLR | 16.5 | 10.5 | 68% | 75.97 | 0.0 | |||||||
| 09 | 21:55 | SW 7 | 16.09 | Fair | CLR | 17 | 10.3 | 65% | 75.95 | 0.0 | |||||||
| 09 | 21:35 | Calm | 16.09 | Fair | CLR | 16.7 | 10.4 | 67% | 75.92 | 0.0 | |||||||
| 09 | 21:15 | Calm | 16.09 | Fair | CLR | 16.8 | 10.6 | 67% | 75.92 | 0.0 | |||||||
| 09 | 20:55 | Calm | 16.09 | Fair | CLR | 17.2 | 10.6 | 65% | 75.9 | 0.0 | |||||||
| 09 | 20:35 | W 6 | 16.09 | Fair | CLR | 18 | 10.9 | 63% | 75.87 | 0.0 | |||||||
| 09 | 20:15 | Calm | 16.09 | Fair | CLR | 18.5 | 10.7 | 61% | 75.87 | 0.0 | |||||||
| 09 | 19:55 | W 6 | 16.09 | Fair | CLR | 19.1 | 10.9 | 59% | 75.87 | 0.0 | |||||||
| 09 | 19:35 | W 7 | 16.09 | Fair | CLR | 19.6 | 11 | 58% | 75.84 | 0.0 | |||||||
| 09 | 18:55 | W 7 | 16.09 | Fair | CLR | 20.4 | 11.2 | 56% | 75.84 | 0.0 | |||||||
| 09 | 18:40 | W 9 | 16.09 | Fair | CLR | 0 | 0 | 0% | 75.84 | 0.0 | |||||||
| 09 | 18:10 | W 11 | 16.09 | Fair | CLR | 0 | 0 | 0% | 75.84 | 0.0 | |||||||
| 09 | 16:20 | NW 6 | 16.09 | Overcast | BKN040 OVC048 | 0 | 0 | 0% | 75.87 | 0.0 | |||||||
| 09 | 14:55 | W 7 | 16.09 | Overcast | SCT034 OVC065 | 18.5 | 9.7 | 57% | 75.87 | 0.0 | |||||||
| 09 | 14:35 | W 15 | 16.09 | Overcast | SCT032 OVC065 | 18.7 | 10.1 | 58% | 75.87 | 0.0 | |||||||
| 09 | 14:15 | W 9 | 16.09 | Overcast | SCT041 OVC065 | 18.3 | 10 | 59% | 75.84 | 0.0 | |||||||
| 09 | 13:55 | W 11 | 16.09 | Overcast | SCT033 BKN040 OVC065 | 18.3 | 10 | 59% | 75.84 | 0.0 | |||||||
| 09 | 13:35 | W 9 | 16.09 | Overcast | SCT033 OVC065 | 0 | 0 | 0% | 75.87 | 0.0 | |||||||
| 09 | 13:15 | W 7 | 16.09 | Overcast | BKN035 OVC065 | 18.2 | 10.3 | 60% | 75.84 | 0.0 | |||||||
| 09 | 12:55 | Calm | 16.09 | Overcast | BKN033 BKN042 OVC070 | 17.2 | 10.2 | 64% | 75.87 | 0.0 | |||||||
| 09 | 12:35 | SW 7 | 16.09 | Overcast | SCT042 OVC070 | 17.6 | 9.8 | 60% | 75.87 | 0.0 | |||||||
| 09 | 12:15 | SW 7 | 16.09 | Overcast | OVC080 | 18 | 9.8 | 59% | 75.87 | 0.0 | |||||||
| 09 | 11:55 | SW 9 | 16.09 | Overcast | BKN080 OVC120 | 17.6 | 9.7 | 60% | 75.87 | 0.0 | |||||||
| 09 | 11:35 | SW 7 | 16.09 | Mostly Cloudy | BKN090 BKN120 | 16.9 | 8.9 | 59% | 75.84 | 0.0 | |||||||
| 09 | 11:15 | SW 7 | 16.09 | Overcast | SCT039 BKN100 OVC120 | 15.9 | 8.8 | 63% | 75.84 | 0.0 | |||||||
| 09 | 09:35 | Calm | 16.09 | Partly Cloudy | SCT120 | 0 | 0 | 0% | 75.82 | 0.0 | |||||||
| 09 | 06:35 | S 6 | 16.09 | Fair | CLR | 11.7 | 3.8 | 59% | 75.82 | 0.0 | |||||||
| 09 | 06:15 | S 6 | 16.09 | Mostly Cloudy | BKN120 | 12 | 3.7 | 57% | 75.82 | 0.0 | |||||||
| 09 | 05:55 | SW 7 | 16.09 | Overcast | OVC120 | 12.1 | 3.3 | 55% | 75.82 | 0.0 | |||||||
| 09 | 05:35 | Calm | 16.09 | Overcast | OVC120 | 12.2 | 3.1 | 54% | 75.82 | 0.0 | |||||||
| 09 | 05:15 | SW 6 | 16.09 | Overcast | OVC120 | 12.5 | 3.2 | 53% | 75.82 | 0.0 | |||||||
| 09 | 04:55 | Calm | 16.09 | Overcast | OVC120 | 12.6 | 3.1 | 53% | 75.82 | 0.0 | |||||||
| 09 | 04:35 | SW 6 | 16.09 | Mostly Cloudy | BKN120 | 12.5 | 2.6 | 51% | 75.82 | 0.0 | |||||||
| 09 | 04:15 | Calm | 16.09 | Fair | CLR | 11.3 | 2.6 | 55% | 75.82 | 0.0 | |||||||
| 09 | 03:55 | Calm | 16.09 | Fair | CLR | 11.9 | 2.7 | 54% | 75.82 | 0.0 | |||||||
| 09 | 03:35 | Calm | 16.09 | Fair | CLR | 12.1 | 2.5 | 52% | 75.82 | 0.0 | |||||||
| 09 | 03:15 | Calm | 16.09 | Fair | CLR | 12.5 | 2.3 | 50% | 75.84 | 0.0 | |||||||
| 09 | 02:55 | S 6 | 16.09 | Fair | CLR | 12.4 | 2.7 | 52% | 75.84 | 0.0 | |||||||
| 09 | 02:35 | S 6 | 16.09 | Fair | CLR | 12.5 | 2.5 | 51% | 75.84 | 0.0 | |||||||
| 09 | 02:15 | Calm | 16.09 | Fair | CLR | 12.5 | 2.3 | 50% | 75.84 | 0.0 | |||||||
| 09 | 01:55 | Calm | 16.09 | Fair | CLR | 12.5 | 2.5 | 19.2 | 12.3 | 51% | 75.87 | 0.0 | |||||
| 09 | 01:35 | Calm | 16.09 | Fair | CLR | 12.8 | 2.5 | 50% | 75.87 | 0.0 | |||||||
| 09 | 01:15 | S 6 | 16.09 | Fair | CLR | 12.9 | 2.5 | 50% | 75.87 | 0.0 | |||||||
| 09 | 00:55 | Calm | 16.09 | Fair | CLR | 12.6 | 2.6 | 51% | 75.84 | 0.0 | |||||||
| 09 | 00:35 | Calm | 16.09 | Fair | CLR | 12.6 | 2.5 | 50% | 75.84 | 0.0 | |||||||
| 09 | 00:15 | Calm | 16.09 | Fair | CLR | 13.5 | 2.2 | 47% | 75.87 | 0.0 | |||||||
| 08 | 23:55 | Calm | 16.09 | Fair | CLR | 14.3 | 2.4 | 45% | 75.9 | 0.0 | |||||||
| 08 | 23:35 | Calm | 16.09 | Fair | CLR | 14.8 | 2.4 | 43% | 75.9 | 0.0 | |||||||
| 08 | 23:15 | Calm | 16.09 | Fair | CLR | 14.9 | 2.7 | 44% | 75.9 | 0.0 | |||||||
| 08 | 22:55 | Calm | 16.09 | Fair | CLR | 14.9 | 2.7 | 44% | 75.92 | 0.0 | |||||||
| 08 | 22:35 | Calm | 16.09 | Fair | CLR | 15 | 3 | 45% | 75.95 | 0.0 | |||||||
| 08 | 22:15 | Calm | 16.09 | Partly Cloudy | SCT110 | 15.1 | 2.2 | 42% | 75.95 | 0.0 | |||||||
| 08 | 21:55 | Calm | 16.09 | Mostly Cloudy | BKN110 | 16.1 | 2.3 | 40% | 75.95 | 0.0 | |||||||
| 08 | 21:35 | Calm | 16.09 | Mostly Cloudy | BKN110 | 15.4 | 2.7 | 43% | 75.92 | 0.0 | |||||||
| 08 | 21:15 | Calm | 16.09 | Fair | CLR | 17.4 | 1.7 | 35% | 75.92 | 0.0 | |||||||
| 08 | 20:55 | Calm | 16.09 | Fair | CLR | 17.1 | 1.7 | 36% | 75.92 | 0.0 | |||||||
| 08 | 20:35 | Calm | 16.09 | Fair | CLR | 17.9 | 1.8 | 34% | 75.9 | 0.0 | |||||||
| 08 | 20:15 | SW 6 | 16.09 | Fair | CLR | 18.5 | 1.5 | 32% | 75.92 | 0.0 | |||||||
| 08 | 19:55 | Calm | 16.09 | Fair | CLR | 19.3 | 1.7 | 31% | 75.92 | 0.0 | |||||||
| 08 | 19:35 | SW 7 | 16.09 | Fair | CLR | 20 | 1.4 | 29% | 75.92 | 0.0 | |||||||
| 08 | 18:55 | SW 6 | 16.09 | Fair | CLR | 20.5 | 0.8 | 27% | 75.95 | 0.0 | |||||||
| 08 | 18:35 | W 9 | 16.09 | Fair | CLR | 20.9 | 0.5 | 26% | 75.95 | 0.0 | |||||||
| 08 | 17:35 | Calm | 16.09 | Fair | CLR | 20.7 | -0.1 | 25% | 75.92 | 0.0 | |||||||
| 08 | 17:15 | S 22 G 31 | 16.09 | Fair | CLR | 21.3 | 0.1 | 24% | 75.95 | 0.0 | |||||||
| 08 | 16:55 | SW 9 | 16.09 | Fair | CLR | 21 | 0.6 | 26% | 75.97 | 0.0 | |||||||
| 08 | 16:35 | SW 17 | 16.09 | Fair | CLR | 20.8 | 0.5 | 26% | 75.97 | 0.0 | |||||||
| 08 | 16:15 | SW 13 | 16.09 | Fair | CLR | 20.9 | 1.3 | 27% | 76 | 0.0 | |||||||
| 08 | 15:35 | SW 11 | 16.09 | Fair | CLR | 20.1 | 1.3 | 29% | 76.07 | 0.0 | |||||||
| 08 | 14:35 | SW 9 | 16.09 | Fair | CLR | 0 | 0 | 0% | 76.15 | 0.0 | |||||||
| 08 | 13:35 | SW 11 | 16.09 | Fair | CLR | 0 | 0 | 0% | 76.2 | 0.0 | |||||||
| 08 | 12:55 | SW 6 | 16.09 | Fair | CLR | 18.2 | 1 | 32% | 76.25 | 0.0 | |||||||
| 08 | 12:35 | SW 9 | 16.09 | Fair | CLR | 17.6 | 1.8 | 35% | 76.3 | 0.0 | |||||||
| 08 | 12:15 | SW 7 | 16.09 | Fair | CLR | 17.5 | 1.6 | 35% | 76.33 | 0.0 | |||||||
| 08 | 11:50 | SW 7 | 16.09 | Fair | CLR | 16.5 | 1.2 | 36% | 76.33 | 0.0 | |||||||
| 08 | 11:35 | SW 9 | 16.09 | Fair | CLR | 16.4 | 1 | 35% | 76.35 | 0.0 | |||||||
| 08 | 10:55 | SW 7 | 16.09 | Fair | CLR | 14.8 | 3.3 | 46% | 76.33 | 0.0 | |||||||
| 08 | 10:35 | SW 6 | 16.09 | Fair | CLR | 13.9 | 3.2 | 49% | 76.33 | 0.0 | |||||||
| 08 | 09:35 | Calm | 16.09 | Fair | CLR | 11.3 | 3.8 | 60% | 76.33 | 0.0 | |||||||
| 08 | 09:15 | Calm | 16.09 | Fair | CLR | 10 | 3.5 | 64% | 76.33 | 0.0 | |||||||
| 08 | 08:55 | S 6 | 16.09 | Fair | CLR | 9.2 | 2.9 | 65% | 76.35 | 0.0 | |||||||
| 08 | 08:35 | SW 7 | 16.09 | Fair | CLR | 8.5 | 2.5 | 66% | 8 | 76.35 | 0.0 | ||||||
| 08 | 06:35 | SW 6 | 16.09 | Fair | CLR | 5.2 | 2.3 | 82% | 76.25 | 0.0 | |||||||
| 08 | 06:15 | S 6 | 16.09 | Fair | CLR | 5.2 | 2.5 | 83% | 76.25 | 0.0 | |||||||
| 08 | 05:55 | SW 6 | 16.09 | Fair | CLR | 5.5 | 2.5 | 81% | 76.25 | 0.0 | |||||||
| 08 | 05:35 | SW 6 | 16.09 | Fair | CLR | 5.3 | 2.5 | 82% | 76.25 | 0.0 | |||||||
| 08 | 05:15 | SW 6 | 16.09 | Fair | CLR | 5.6 | 2.5 | 81% | 76.25 | 0.0 | |||||||
| 08 | 04:55 | Calm | 16.09 | Fair | CLR | 4.8 | 2.7 | 86% | 76.25 | 0.0 | |||||||
| 08 | 04:35 | SW 6 | 16.09 | Fair | CLR | 5.3 | 2.5 | 82% | 76.23 | 0.0 | |||||||
| 08 | 04:15 | Calm | 16.09 | Fair | CLR | 5.6 | 2.5 | 81% | 76.23 | 0.0 | |||||||
| 08 | 03:55 | Calm | 16.09 | Fair | CLR | 5 | 2.5 | 84% | 76.23 | 0.0 | |||||||
| 08 | 03:35 | Calm | 16.09 | Fair | CLR | 5.1 | 2.4 | 83% | 76.23 | 0.0 | |||||||
| 08 | 03:15 | W 6 | 16.09 | Fair | CLR | 5.7 | 2.4 | 80% | 76.23 | 0.0 | |||||||
| 08 | 02:55 | Calm | 16.09 | Fair | CLR | 5.6 | 2.1 | 78% | 76.23 | 0.0 | |||||||
| 08 | 02:35 | Calm | 16.09 | Fair | CLR | 5.5 | 3 | 84% | 76.23 | 0.0 | |||||||
| 08 | 02:15 | Calm | 16.09 | Fair | CLR | 5.8 | 2.6 | 80% | 76.23 | 0.0 | |||||||
| 08 | 01:55 | Calm | 16.09 | Fair | CLR | 6.6 | 2.1 | 14.5 | 6.2 | 73% | 76.25 | 0.0 | |||||
| 08 | 01:35 | Calm | 16.09 | Fair | CLR | 6.4 | 2.1 | 74% | 76.25 | 0.0 | |||||||
| 08 | 01:15 | Calm | 16.09 | Fair | CLR | 6.8 | 2.6 | 75% | 76.23 | 0.0 | |||||||
| 08 | 00:55 | Calm | 16.09 | Fair | CLR | 6.8 | 2.7 | 75% | 76.23 | 0.0 | |||||||
| 08 | 00:35 | Calm | 16.09 | Fair | CLR | 7.2 | 1.3 | 66% | 76.23 | 0.0 | |||||||
| 08 | 00:15 | Calm | 16.09 | Fair | CLR | 7.5 | 1.5 | 66% | 76.23 | 0.0 | |||||||
| 07 | 23:55 | Calm | 16.09 | Fair | CLR | 8.4 | 1.9 | 64% | 76.23 | 0.0 | |||||||
| 07 | 23:35 | Calm | 16.09 | Fair | CLR | 9 | 2.1 | 62% | 76.23 | 0.0 | |||||||
| 07 | 23:15 | Calm | 16.09 | Fair | CLR | 9.2 | 0.8 | 56% | 76.23 | 0.0 | |||||||
| 07 | 22:55 | Calm | 16.09 | Fair | CLR | 10.7 | 0.1 | 48% | 76.2 | 0.0 | |||||||
| 07 | 22:35 | Calm | 16.09 | Fair | CLR | 10.1 | 0.6 | 52% | 76.2 | 0.0 | |||||||
| 07 | 22:15 | Calm | 16.09 | Fair | CLR | 11.1 | 0.7 | 49% | 76.17 | 0.0 | |||||||
| 07 | 21:55 | Calm | 16.09 | Fair | CLR | 10.8 | 1.2 | 52% | 76.15 | 0.0 | |||||||
| 07 | 21:35 | Calm | 16.09 | Fair | CLR | 11.6 | 0.8 | 48% | 76.12 | 0.0 | |||||||
| 07 | 21:15 | Calm | 16.09 | Fair | CLR | 11.5 | 0.8 | 48% | 76.1 | 0.0 | |||||||
| 07 | 20:55 | Calm | 16.09 | Partly Cloudy | SCT065 | 12.5 | 0.9 | 45% | 76.1 | 0.0 | |||||||
| 07 | 20:35 | Calm | 16.09 | Partly Cloudy | SCT065 | 13 | 1.1 | 45% | 76.1 | 0.0 | |||||||
| 07 | 20:15 | Calm | 16.09 | Fair | CLR | 13.6 | 1 | 43% | 76.07 | 0.0 | |||||||
| 07 | 19:55 | Calm | 16.09 | Fair | CLR | 14.6 | 0.8 | 39% | 76.07 | 0.0 | |||||||
| 07 | 19:35 | W 7 | 16.09 | Partly Cloudy | SCT065 | 15.4 | 0.8 | 37% | 76.05 | 0.0 | |||||||
| 07 | 19:15 | NW 6 | 16.09 | Partly Cloudy | SCT065 | 16 | 0.6 | 35% | 76.02 | 0.0 | |||||||
| 07 | 18:55 | NW 7 | 16.09 | Partly Cloudy | SCT065 | 16.3 | 0.4 | 34% | 76.05 | 0.0 | |||||||
| 07 | 18:35 | W 11 | 16.09 | Mostly Cloudy | BKN065 | 16.9 | 1 | 34% | 76.02 | 0.0 | |||||||
| 07 | 18:15 | N 7 | 16.09 | Mostly Cloudy | BKN065 | 17 | 1.9 | 36% | 76.02 | 0.0 | |||||||
| 07 | 17:55 | W 13 | 16.09 | Mostly Cloudy | BKN065 | 16.9 | 1.7 | 36% | 76 | 0.0 | |||||||
| 07 | 17:35 | NW 7 | 16.09 | Mostly Cloudy | BKN065 | 17.2 | 1.6 | 35% | 76 | 0.0 | |||||||
| 07 | 17:15 | W 11 | 16.09 | Partly Cloudy | SCT065 | 17.8 | 2.1 | 35% | 75.97 | 0.0 | |||||||
| 07 | 16:55 | NW 7 | 16.09 | Fair | CLR | 17 | 1.8 | 36% | 75.97 | 0.0 | |||||||
| 07 | 16:40 | N 7 | 16.09 | Partly Cloudy | SCT070 | 0 | 0 | 0% | 75.97 | 0.0 | |||||||
| 07 | 13:30 | Calm | 16.09 | Overcast | SCT037 BKN045 OVC050 | 13.6 | 5.1 | 57% | 76.07 | 0.0 | |||||||
| Date | Time (edt) | Wind (kph) | Vis. (km) | Weather | Sky Cond. | Air | Dwpt | Max. | Min. | Relative Humidity | Wind Chill (°C) | Heat Index (°C) | altimeter (cm) | sea level (mb) | 1 hr | 3 hr | 6 hr |
| 6 hour | |||||||||||||||||
| Temperature (ºC) | Pressure | Precipitation (cm) | |||||||||||||||